EW3814 Weather Reports


Display with metric or nautical units.
time (UTC)temp
F
wind
direction
speed
MPH
gust
MPH
rain 1hr
in
rain 24hr
in
rain mn
in
humidity
%
barometer
mb
20260510212534 80 248 0.0 0.0 0.00 0.00 0.00 35 1017.0
20260510212033 80 296 0.0 0.0 0.00 0.00 0.00 32 1017.1
20260510211534 80 296 0.0 0.0 0.00 0.00 0.00 40 1017.1
20260510211033 80 252 0.0 0.0 0.00 0.00 0.00 36 1017.2
20260510210533 79 252 0.0 0.0 0.00 0.00 0.00 33 1017.1
20260510210031 80 190 0.0 0.0 0.00 0.00 0.00 38 1017.1
20260510205529 81 190 0.0 0.0 0.00 0.00 0.00 29 1017.1
20260510205027 82 190 0.0 0.0 0.00 0.00 0.00 32 1017.1
20260510204526 81 198 0.0 0.0 0.00 0.00 0.00 35 1017.0
20260510203527 83 115 0.0 0.0 0.00 0.00 0.00 31 1017.1
20260510203026 82 109 0.0 0.0 0.00 0.00 0.00 30 1017.2
20260510202527 82 109 0.0 0.0 0.00 0.00 0.00 29 1017.2
20260510202026 82 109 0.0 0.0 0.00 0.00 0.00 30 1017.3
20260510201527 82 109 0.0 0.0 0.00 0.00 0.00 35 1017.3
20260510201026 83 237 0.0 0.0 0.00 0.00 0.00 33 1017.4
20260510200527 83 338 0.0 0.0 0.00 0.00 0.00 30 1017.4
20260510200026 82 182 0.0 0.0 0.00 0.00 0.00 29 1017.5
20260510195527 82 165 0.0 0.0 0.00 0.00 0.00 30 1017.5
20260510194526 82 194 0.0 0.0 0.00 0.00 0.00 29 1017.6
20260510194027 83 196 0.0 0.0 0.00 0.00 0.00 33 1017.6
20260510193026 83 216 0.0 0.0 0.00 0.00 0.00 28 1017.6
20260510192526 83 207 0.0 0.0 0.00 0.00 0.00 27 1017.6
20260510192026 84 244 0.0 0.0 0.00 0.00 0.00 28 1017.7
20260510191528 84 328 0.0 0.0 0.00 0.00 0.00 28 1017.7
20260510185526 83 30 0.0 0.0 0.00 0.00 0.00 31 1017.9
20260510185023 82 6 0.0 0.0 0.00 0.00 0.00 28 1017.8
20260510184522 83 348 0.0 0.0 0.00 0.00 0.00 29 1017.9
20260510184023 82 21 0.0 0.0 0.00 0.00 0.00 28 1017.9
20260510182522 82 189 0.0 0.0 0.00 0.00 0.00 30 1018.0
20260510182020 82 183 0.0 0.0 0.00 0.00 0.00 31 1018.1
20260510181021 82 356 0.0 0.0 0.00 0.00 0.00 31 1018.0
20260510175519 83 155 0.0 0.0 0.00 0.00 0.00 30 1018.2
20260510175020 81 155 0.0 0.0 0.00 0.00 0.00 31 1018.3
20260510174516 82 177 0.0 0.0 0.00 0.00 0.00 34 1018.3
20260510174016 82 194 0.0 0.0 0.00 0.00 0.00 34 1018.3
20260510173016 81 17 0.0 0.0 0.00 0.00 0.00 33 1018.5
20260510172514 81 7 0.0 0.0 0.00 0.00 0.00 31 1018.7
20260510172015 81 68 0.0 0.0 0.00 0.00 0.00 33 1018.7
20260510170514 81 90 0.0 0.0 0.00 0.00 0.00 34 1018.8
20260510165512 79 96 0.0 0.0 0.00 0.00 0.00 31 1018.7
20260510165014 79 169 0.0 0.0 0.00 0.00 0.00 36 1018.6
20260510164513 80 169 0.0 0.0 0.00 0.00 0.00 33 1018.7
20260510164012 80 175 0.0 0.0 0.00 0.00 0.00 32 1018.7
20260510163512 80 175 0.0 0.0 0.00 0.00 0.00 33 1018.8
20260510163013 79 145 0.0 0.0 0.00 0.00 0.00 40 1018.8
20260510162512 78 145 0.0 0.0 0.00 0.00 0.00 36 1018.7
20260510162011 77 145 0.0 0.0 0.00 0.00 0.00 36 1018.8
20260510161510 78 148 0.0 0.0 0.00 0.00 0.00 40 1018.8
20260510160511 77 173 0.0 0.0 0.00 0.00 0.00 38 1018.9
20260510160010 77 281 0.0 0.0 0.00 0.00 0.00 40 1018.9
20260510154511 76 272 0.0 0.0 0.00 0.00 0.00 45 1019.0
20260510154011 75 6 0.0 0.0 0.00 0.00 0.00 49 1019.0
20260510153511 74 32 0.0 0.0 0.00 0.00 0.00 50 1019.0
20260510153009 74 262 0.0 0.0 0.00 0.00 0.00 51 1019.0
20260510152009 74 267 0.0 0.0 0.00 0.00 0.00 50 1019.0
20260510151508 74 267 0.0 0.0 0.00 0.00 0.00 48 1019.0
20260510151007 73 252 0.0 0.0 0.00 0.00 0.00 55 1019.0
20260510150509 73 248 0.0 0.0 0.00 0.00 0.00 52 1019.0
20260510145508 73 275 0.0 0.0 0.00 0.00 0.00 60 1019.1
20260510145009 73 275 0.0 0.0 0.00 0.00 0.00 59 1019.2
20260510144508 72 177 0.0 0.0 0.00 0.00 0.00 59 1019.1
20260510143008 72 177 0.0 0.0 0.00 0.00 0.00 62 1019.1
20260510142506 71 359 0.0 0.0 0.00 0.00 0.00 63 1019.1
20260510142006 71 359 0.0 0.0 0.00 0.00 0.00 64 1019.1
20260510141006 71 0 0.0 0.0 0.00 0.00 0.00 75 1019.1
20260510140506 70 0 0.0 0.0 0.00 0.00 0.00 69 1019.1
20260510140005 69 25 0.0 0.0 0.00 0.00 0.00 70 1019.1
20260510135505 69 30 0.0 0.0 0.00 0.00 0.00 80 1019.0
20260510135008 68 30 0.0 0.0 0.00 0.00 0.00 79 1019.1
20260510134507 67 30 0.0 0.0 0.00 0.00 0.00 83 1019.1
20260510134007 67 30 0.0 0.0 0.00 0.00 0.00 83 1019.0
20260510133507 67 30 0.0 0.0 0.00 0.00 0.00 84 1019.0
20260510133004 66 30 0.0 0.0 0.00 0.00 0.00 84 1019.0
20260510132504 64 29 0.0 0.0 0.00 0.00 0.00 90 1019.0
20260510132003 62 29 0.0 0.0 0.00 0.00 0.00 95 1019.0
20260510131005 60 29 0.0 0.0 0.00 0.00 0.00 95 1019.0
20260510130504 60 29 0.0 0.0 0.00 0.00 0.00 95 1019.0
20260510130004 60 29 0.0 0.0 0.00 0.00 0.00 95 1018.9
20260510125504 59 29 0.0 0.0 0.00 0.00 0.00 95 1018.9
20260510125005 59 29 0.0 0.0 0.00 0.00 0.00 95 1019.0
20260510124001 57 30 0.0 0.0 0.00 0.00 0.00 95 1018.9
20260510123503 57 30 0.0 0.0 0.00 0.00 0.00 95 1018.8
20260510123002 57 30 0.0 0.0 0.00 0.00 0.00 95 1018.7
20260510122500 56 30 0.0 0.0 0.00 0.00 0.00 94 1018.6
20260510121959 56 30 0.0 0.0 0.00 0.00 0.00 94 1018.6
20260510121500 56 30 0.0 0.0 0.00 0.00 0.00 94 1018.4
20260510120959 56 30 0.0 0.0 0.00 0.00 0.00 94 1018.3
20260510120000 56 30 0.0 0.0 0.00 0.00 0.00 94 1018.0
20260510115500 56 30 0.0 0.0 0.00 0.00 0.00 94 1017.9
20260510115000 56 30 0.0 0.0 0.00 0.00 0.00 94 1017.9
20260510114501 56 30 0.0 0.0 0.00 0.00 0.00 94 1017.9
20260510113959 56 30 0.0 0.0 0.00 0.00 0.00 94 1017.8
20260510113000 55 30 0.0 0.0 0.00 0.00 0.00 94 1017.7
20260510112459 56 30 0.0 0.0 0.00 0.00 0.00 93 1017.7
20260510112000 56 30 0.0 0.0 0.00 0.00 0.00 93 1017.6
20260510111501 56 30 0.0 0.0 0.00 0.00 0.00 93 1017.5
20260510111000 56 30 0.0 0.0 0.00 0.00 0.00 93 1017.5
20260510110501 56 30 0.0 0.0 0.00 0.00 0.00 93 1017.4
20260510105459 56 30 0.0 0.0 0.00 0.00 0.00 93 1017.2
20260510105000 56 30 0.0 0.0 0.00 0.00 0.00 93 1017.1
20260510104501 56 30 0.0 0.0 0.00 0.00 0.00 93 1017.0
20260510103501 56 30 0.0 0.0 0.00 0.00 0.00 93 1016.6
20260510102500 56 30 0.0 0.0 0.00 0.00 0.00 93 1016.6
20260510101501 57 30 0.0 0.0 0.00 0.00 0.00 93 1016.5
20260510101001 57 30 0.0 0.0 0.00 0.00 0.00 93 1016.4
20260510100457 57 30 0.0 0.0 0.00 0.00 0.00 93 1016.4
20260510095959 57 30 0.0 0.0 0.00 0.00 0.00 93 1016.4
20260510095457 57 30 0.0 0.0 0.00 0.00 0.00 93 1016.2
20260510095101 57 30 0.0 0.0 0.00 0.00 0.00 93 1016.2
20260510094601 57 30 0.0 0.0 0.00 0.00 0.00 93 1016.1
20260510093556 58 30 0.0 0.0 0.00 0.00 0.00 93 1016.0
20260510093055 58 30 0.0 0.0 0.00 0.00 0.00 93 1016.0
20260510092552 58 30 0.0 0.0 0.00 0.00 0.00 93 1015.9
20260510092052 58 30 0.0 0.0 0.00 0.00 0.00 93 1016.0
20260510091549 58 30 0.0 0.0 0.00 0.00 0.00 93 1015.9
20260510091048 58 30 0.0 0.0 0.00 0.00 0.00 93 1015.8
20260510090047 58 30 0.0 0.0 0.00 0.00 0.00 93 1015.7
20260510085544 58 30 0.0 0.0 0.00 0.00 0.00 93 1015.7
20260510084541 58 30 0.0 0.0 0.00 0.00 0.00 93 1015.6
20260510084039 58 30 0.0 0.0 0.00 0.00 0.00 93 1015.6
20260510083539 59 30 0.0 0.0 0.00 0.00 0.00 93 1015.5
20260510083036 59 30 0.0 0.0 0.00 0.00 0.00 93 1015.3
20260510082535 59 30 0.0 0.0 0.00 0.00 0.00 93 1015.2
20260510082035 59 30 0.0 0.0 0.00 0.00 0.00 93 1015.3
20260510081532 59 30 0.0 0.0 0.00 0.00 0.00 93 1015.2
20260510081034 59 30 0.0 0.0 0.00 0.00 0.00 93 1015.2
20260510080531 59 30 0.0 0.0 0.00 0.00 0.00 93 1015.2
20260510080029 59 30 0.0 0.0 0.00 0.00 0.00 93 1015.3
20260510075027 59 30 0.0 0.0 0.00 0.00 0.00 93 1015.1
20260510074023 59 30 0.0 0.0 0.00 0.00 0.00 93 1015.0
20260510073523 59 30 0.0 0.0 0.00 0.00 0.00 93 1015.0
20260510072519 60 30 0.0 0.0 0.00 0.00 0.00 92 1015.0
20260510072018 60 30 0.0 0.0 0.00 0.00 0.00 92 1014.9
20260510071015 60 30 0.0 0.0 0.00 0.00 0.00 92 1014.9
20260510070514 60 30 0.0 0.0 0.00 0.00 0.00 92 1014.9
20260510070011 60 30 0.0 0.0 0.00 0.00 0.00 92 1014.9
20260510065510 60 30 0.0 0.0 0.00 0.00 0.00 92 1014.8
20260510065009 60 30 0.0 0.0 0.00 0.00 0.00 92 1014.8
20260510064005 60 30 0.0 0.0 0.00 0.00 0.00 92 1014.8
20260510063002 60 30 0.0 0.0 0.00 0.00 0.00 92 1014.9
20260510062501 60 30 0.0 0.0 0.00 0.00 0.00 92 1014.9
20260510061959 61 30 0.0 0.0 0.00 0.00 0.00 92 1014.8
20260510061458 61 30 0.0 0.0 0.00 0.00 0.00 92 1014.8
20260510060954 61 30 0.0 0.0 0.00 0.00 0.00 92 1014.8
20260510060454 61 30 0.0 0.0 0.00 0.00 0.00 92 1014.8
20260510055952 61 30 0.0 0.0 0.00 0.00 0.00 92 1014.9
20260510055449 61 30 0.0 0.0 0.00 0.00 0.00 92 1014.9
20260510054949 61 30 0.0 0.0 0.00 0.00 0.00 92 1015.0
20260510054448 61 30 0.0 0.0 0.00 0.00 0.00 92 1015.0
20260510053947 61 30 0.0 0.0 0.00 0.00 0.00 92 1015.0
20260510053446 61 30 0.0 0.0 0.00 0.00 0.00 92 1015.0
20260510052945 61 30 0.0 0.0 0.00 0.00 0.00 92 1014.9
20260510052444 61 30 0.0 0.0 0.00 0.00 0.00 92 1015.0
20260510051943 62 30 0.0 0.0 0.00 0.00 0.00 92 1015.0
20260510051443 62 30 0.0 0.0 0.00 0.00 0.00 92 1015.1
20260510050941 62 30 0.0 0.0 0.00 0.00 0.00 92 1015.2
20260510050441 62 30 0.0 0.0 0.00 0.00 0.00 92 1015.3
20260510045441 62 30 0.0 0.0 0.00 0.00 0.00 91 1015.3
20260510044941 62 30 0.0 0.0 0.00 0.00 0.00 91 1015.3
20260510043942 62 30 0.0 0.0 0.00 0.00 0.00 91 1015.2
20260510042941 62 30 0.0 0.0 0.00 0.00 0.00 90 1015.2
20260510042441 62 30 0.0 0.0 0.00 0.00 0.00 90 1015.2
20260510041941 62 30 0.0 0.0 0.00 0.00 0.00 91 1015.3
20260510041442 62 30 0.0 0.0 0.00 0.00 0.00 90 1015.4
20260510040941 62 30 0.0 0.0 0.00 0.00 0.00 90 1015.4
20260510040438 62 30 0.0 0.0 0.00 0.00 0.00 90 1015.2
20260510035939 63 30 0.0 0.0 0.00 0.00 0.00 90 1015.2
20260510035439 63 30 0.0 0.0 0.00 0.00 0.00 90 1015.3
20260510034938 63 30 0.0 0.0 0.00 0.00 0.00 89 1015.3
20260510033438 63 30 0.0 0.0 0.00 0.00 0.00 89 1015.3
20260510032939 63 30 0.0 0.0 0.00 0.00 0.00 89 1015.3
20260510031938 64 30 0.0 0.0 0.00 0.00 0.00 88 1015.3
20260510031438 64 30 0.0 0.0 0.00 0.00 0.00 88 1015.3
20260510030938 64 30 0.0 0.0 0.00 0.00 0.00 88 1015.2
20260510025940 64 30 0.0 0.0 0.00 0.00 0.00 88 1015.2
20260510025439 64 30 0.0 0.0 0.00 0.00 0.00 88 1015.2
20260510024940 64 30 0.0 0.0 0.00 0.00 0.00 88 1015.2
20260510024439 64 30 0.0 0.0 0.00 0.00 0.00 87 1015.1
20260510023938 64 30 0.0 0.0 0.00 0.00 0.00 87 1015.2
20260510023438 64 30 0.0 0.0 0.00 0.00 0.00 87 1015.0
20260510022940 65 30 0.0 0.0 0.00 0.00 0.00 87 1015.0
20260510022439 65 30 0.0 0.0 0.00 0.00 0.00 87 1015.0
20260510021939 65 30 0.0 0.0 0.00 0.00 0.00 86 1015.0
20260510021439 65 30 0.0 0.0 0.00 0.00 0.00 86 1014.9
20260510020939 65 30 0.0 0.0 0.00 0.00 0.00 86 1015.0
20260510020439 65 30 0.0 0.0 0.00 0.00 0.00 86 1014.9
20260510015938 65 30 0.0 0.0 0.00 0.00 0.00 86 1014.9
20260510014939 65 30 0.0 0.0 0.00 0.00 0.00 85 1014.7
20260510014438 65 30 0.0 0.0 0.00 0.00 0.00 85 1014.5
20260510013939 65 30 0.0 0.0 0.00 0.00 0.00 86 1014.6
20260510013438 65 30 0.0 0.0 0.00 0.00 0.00 85 1014.5
20260510012938 66 30 0.0 0.0 0.00 0.00 0.00 85 1014.4
20260510012439 66 30 0.0 0.0 0.00 0.00 0.00 84 1014.3
20260510011938 66 30 0.0 0.0 0.00 0.00 0.00 83 1014.3
20260510011439 66 30 0.0 0.0 0.00 0.00 0.00 83 1014.3
20260510010939 66 30 0.0 0.0 0.00 0.00 0.00 83 1014.2
20260510010439 66 30 0.0 0.0 0.00 0.00 0.00 83 1014.2
20260510005939 67 30 0.0 0.0 0.00 0.00 0.00 82 1014.2
20260510005440 67 30 0.0 0.0 0.00 0.00 0.00 81 1014.1
20260510004940 67 30 0.0 0.0 0.00 0.00 0.00 81 1014.0
20260510004437 67 30 0.0 0.0 0.00 0.00 0.00 81 1013.9
20260510003937 68 30 0.0 0.0 0.00 0.00 0.00 81 1013.7
20260510003437 68 30 0.0 0.0 0.00 0.00 0.00 81 1013.6
20260510002937 68 30 0.0 0.0 0.00 0.00 0.00 80 1013.5
20260510002434 69 30 0.0 0.0 0.00 0.00 0.00 80 1013.5
20260510001933 69 30 0.0 0.0 0.00 0.00 0.00 79 1013.4
20260510001434 69 30 0.0 0.0 0.00 0.00 0.00 80 1013.3
20260510000930 69 30 0.0 0.0 0.00 0.00 0.00 80 1013.3
20260509235430 70 30 0.0 0.0 0.00 0.00 0.00 79 1013.1
20260509234931 70 30 0.0 0.0 0.00 0.00 0.00 77 1013.0
20260509234430 70 30 0.0 0.0 0.00 0.00 0.00 77 1013.0
20260509233931 71 30 0.0 0.0 0.00 0.00 0.00 77 1013.0
20260509233432 71 30 0.0 0.0 0.00 0.00 0.00 77 1013.0
20260509232928 71 30 0.0 0.0 0.00 0.00 0.00 77 1013.0
20260509232429 71 30 0.0 0.0 0.00 0.00 0.00 77 1013.1
20260509231930 71 30 0.0 0.0 0.00 0.00 0.00 75 1013.1
20260509230929 71 30 0.0 0.0 0.00 0.00 0.00 74 1013.1
20260509230428 71 30 0.0 0.0 0.00 0.00 0.00 74 1013.1
20260509225929 71 35 0.0 0.0 0.00 0.00 0.00 74 1013.0
20260509225428 71 35 0.0 0.0 0.00 0.00 0.00 74 1012.7
20260509224929 71 36 0.0 0.0 0.00 0.00 0.00 73 1012.6
20260509224427 71 35 0.0 0.0 0.00 0.00 0.00 74 1012.7
20260509223926 72 35 0.0 0.0 0.00 0.00 0.00 74 1012.7
20260509223426 72 35 0.0 0.0 0.00 0.00 0.00 72 1012.7
20260509222926 72 27 0.0 0.0 0.00 0.00 0.00 74 1012.6
20260509222428 72 27 0.0 0.0 0.00 0.00 0.00 72 1012.4
20260509221426 72 11 0.0 0.0 0.00 0.00 0.00 73 1012.3
20260509220426 73 10 0.0 0.0 0.00 0.00 0.00 70 1012.2
20260509215926 73 10 0.0 0.0 0.00 0.00 0.00 70 1012.2
20260509215427 73 9 0.0 0.0 0.00 0.00 0.00 70 1012.3
20260509214924 73 8 0.0 0.0 0.00 0.00 0.00 69 1012.4
20260509214424 73 40 0.0 0.0 0.00 0.00 0.00 69 1012.3
20260509213924 73 152 0.0 0.0 0.00 0.00 0.00 70 1012.4
20260509213424 73 17 0.0 0.0 0.00 0.00 0.00 70 1012.3